Temp
20 20 21 21 20 20 20 20 20 20 20 20 20 20 19 19 19 18 18 18 19 19 19 19 19 19 18 18 18 17 17 17 18 18 18 18 18 18 18 18 18 18 18
21 20 20 21 21 20 20 20 20 20 20 19 19 19 19 19 18 18 18 18 19 19 19 18 19 18 18 18 18 17 17 18 18 18 18 18 18 18 17 18 18 18 17
21 20 20 20 21 20 20 20 20 20 20 19 19 19 18 18 19 19 18 19 19 19 19 18 18 18 18 17 17 17 17 18 18 18 18 17 18 18 17 17 17 17 17
21 20 20 20 21 21 20 20 20 20 20 19 19 19 18 19 19 19 19 19 19 18 19 18 18 18 17 17 18 18 18 18 18 18 18 18 17 17 17 17 17 16 16
20 20 20 20 20 20 20 20 20 20 20 20 20 19 19 19 19 19 19 19 19 18 18 18 18 17 18 18 18 18 18 18 18 18 18 17 17 17 17 17 16 16 16
19 20 20 20 20 20 20 20 20 20 20 20 20 19 19 19 19 19 19 19 19 18 17 17 17 18 18 18 18 18 18 18 19 18 18 17 17 16 16 16 16 16 16
19 19 19 19 20 21 21 20 20 20 20 20 20 19 19 19 19 19 19 19 18 17 17 17 17 18 18 18 18 18 18 18 18 18 18 17 17 16 16 16 17 16 16
20 19 19 19 19 20 20 21 20 20 20 20 20 20 19 19 19 19 19 19 18 17 17 17 18 18 18 18 18 18 18 18 18 18 18 17 16 16 16 16 17 16 16
21 21 20 19 19 19 20 20 20 20 20 20 19 19 19 19 19 19 19 19 19 18 18 18 18 18 18 18 18 18 18 18 18 18 18 18 17 16 17 17 17 17 17
21 21 20 20 19 19 19 19 19 19 19 19 19 19 19 19 19 18 19 19 19 19 19 19 19 18 18 18 18 18 18 18 18 18 18 18 17 16 17 17 17 17 17
17 19 21 20 20 19 19 19 19 19 19 19 19 19 19 18 19 18 18 18 19 19 19 19 19 18 18 18 18 18 18 18 18 18 18 18 17 17 17 17 17 17 17
16 17 18 20 20 20 19 19 19 19 19 19 18 19 18 19 19 18 18 18 18 19 19 19 19 19 18 18 18 18 18 18 18 18 18 18 18 16 17 17 17 17 17
16 15 16 17 19 20 20 19 19 19 19 19 19 18 18 18 18 18 18 18 18 18 18 18 18 18 18 18 18 18 18 18 18 19 18 18 18 17 17 17 17 17 17
17 16 16 16 16 17 18 19 19 19 20 19 19 18 18 18 18 19 18 18 17 17 18 18 18 18 18 18 18 18 18 18 19 19 19 18 18 18 17 18 18 17 17
17 17 16 15 16 16 17 18 19 19 19 20 20 20 19 18 17 19 18 17 17 18 18 18 18 18 18 18 18 19 19 19 19 19 19 19 19 19 18 18 18 18 17
17 17 16 15 16 16 17 18 19 19 19 19 19 19 20 20 18 18 18 18 18 18 18 17 17 18 18 18 18 18 19 19 19 19 19 19 19 19 18 18 18 18 18
18 18 16 17 16 16 17 18 18 18 17 18 17 18 18 18 19 19 18 18 18 18 18 17 17 17 17 17 18 18 18 19 19 19 19 19 19 19 19 18 18 18 18
17 17 17 17 16 16 17 17 18 18 17 17 18 17 17 17 17 17 19 18 18 17 18 17 17 17 17 17 18 18 18 19 19 19 19 19 19 19 19 19 18 18 17
17 17 17 16 16 17 16 17 17 17 17 17 17 16 16 16 16 16 18 18 18 16 17 17 17 17 17 17 17 18 18 19 19 19 19 19 19 19 19 19 18 18 17
16 17 17 16 16 16 16 16 16 16 16 17 16 16 16 16 16 16 16 15 16 15 16 17 17 17 17 17 17 18 18 18 19 19 19 19 19 19 19 18 18 18 17
15 15 16 16 16 15 14 14 14 14 14 14 15 15 15 15 15 16 16 15 15 15 16 17 17 17 16 16 16 17 18 18 18 19 19 19 19 19 18 17 18 17 17
15 15 16 15 16 15 14 14 14 15 15 14 14 15 14 15 15 15 15 15 15 15 15 16 16 16 16 17 16 16 15 17 19 18 18 18 18 18 17 17 17 17 16
13 15 15 15 15 13 14 14 13 14 14 15 14 14 14 14 15 15 16 15 14 14 14 14 15 16 16 17 16 17 14 15 14 16 17 17 17 17 16 16 16 16 16
14 16 15 14 13 14 14 13 14 14 14 15 15 14 14 15 15 16 16 16 15 16 16 16 17 17 17 16 16 16 16 16 15 15 16 16 16 16 16 16 15 15 15
15 14 13 14 14 14 14 13 14 14 14 15 15 14 15 15 14 14 15 15 15 15 16 14 17 17 17 16 17 16 15 14 15 14 14 14 15 16 16 16 16 15 15
13 14 13 13 13 14 15 14 14 14 14 14 14 14 14 14 14 14 14 14 14 14 15 16 19 18 17 16 16 16 16 14 13 13 12 13 14 16 16 15 15 14 14
Height
772 775 779 782 785 788 790 793 795 798 800 802 804 805 806 808 810 811 812 815 817 818 819 820 822 823 823 824 826 827 828 828 828 829 829 829 829 830 830 830 830 830 830
772 775 779 783 786 788 791 793 795 798 800 802 804 806 807 809 811 813 814 815 818 819 820 821 823 824 825 827 827 829 829 830 830 831 831 831 832 832 832 832 832 833 832
773 778 781 784 787 789 792 794 796 798 801 802 805 806 809 810 811 813 815 817 818 819 822 823 825 827 827 828 829 830 831 832 832 833 833 833 834 834 835 835 835 835 835
773 778 782 784 787 790 793 794 797 799 801 804 806 808 809 811 812 813 815 818 819 820 822 824 826 828 829 829 830 831 833 833 834 835 835 835 836 837 837 837 837 836 836
774 777 781 785 789 791 793 795 797 800 802 804 806 808 809 811 812 814 815 818 821 822 823 825 826 827 829 830 831 832 833 834 835 836 836 837 837 838 837 837 838 838 837
778 778 781 784 787 791 792 794 797 800 802 804 806 808 810 811 812 814 817 818 821 823 824 825 827 828 829 831 832 833 834 835 836 836 837 838 838 838 838 838 838 839 839
779 783 785 786 788 790 792 794 795 797 800 803 806 808 810 811 813 814 817 819 821 824 825 826 827 829 830 832 832 834 835 836 837 838 838 839 839 840 840 840 839 840 840
779 782 787 789 790 791 793 794 796 797 799 801 804 807 809 811 813 814 816 818 820 823 825 826 827 829 831 832 833 834 835 836 837 839 840 840 840 841 841 842 841 841 841
781 783 786 789 790 793 794 794 796 797 799 800 803 805 809 812 814 815 817 818 820 822 824 826 827 828 831 833 833 835 836 837 838 839 840 841 841 842 842 842 842 841 841
783 784 785 787 790 791 794 794 796 797 798 800 802 805 807 810 813 814 816 817 819 821 823 825 827 828 829 832 834 835 836 837 838 840 841 841 842 843 843 843 843 843 843
781 782 784 786 788 790 791 793 795 796 798 800 802 804 808 810 812 815 816 818 819 820 822 824 827 829 830 831 833 835 836 837 838 838 840 841 842 842 843 843 843 843 843
784 783 783 785 787 788 789 791 793 794 795 798 801 804 805 808 811 813 816 819 820 820 822 824 825 828 830 831 832 834 836 837 838 839 839 840 841 842 842 843 843 843 842
785 783 783 783 785 788 789 790 792 793 793 795 798 802 805 807 809 811 814 818 820 821 821 823 825 826 827 829 831 833 835 836 837 837 838 839 840 841 841 842 842 842 842
782 782 782 783 784 785 787 789 791 792 792 794 796 800 803 806 808 810 813 814 817 820 821 821 822 825 827 828 829 831 833 835 836 836 837 838 839 839 840 840 841 841 841
779 778 779 780 783 784 786 788 790 790 791 793 794 796 800 804 807 808 811 815 817 818 820 821 822 823 825 827 828 829 830 832 833 834 835 836 837 837 838 838 839 839 840
776 775 775 776 779 783 784 785 786 787 789 791 792 795 797 797 803 807 809 813 815 817 818 821 822 822 824 824 826 827 828 829 830 832 833 834 835 836 836 836 837 837 837
770 771 771 772 774 777 781 783 784 785 787 788 790 793 796 797 798 798 806 808 811 814 816 820 821 822 823 824 823 825 826 827 828 829 830 832 833 833 834 835 835 835 835
766 767 767 769 770 773 775 778 781 782 784 784 786 789 792 793 795 798 796 801 806 809 812 815 817 820 820 822 823 823 824 824 825 826 828 828 829 830 831 832 832 833 832
758 761 762 764 766 768 772 773 776 779 780 781 782 783 787 789 791 794 794 794 798 804 806 811 814 815 818 819 821 821 822 822 822 823 823 824 825 826 827 827 829 829 829
753 754 756 758 760 763 766 770 772 773 774 776 778 779 780 784 786 790 793 795 796 799 800 807 811 812 814 815 818 818 818 818 819 818 819 821 821 822 823 824 825 826 826
747 749 749 752 754 758 762 765 767 768 770 771 772 774 777 779 783 785 788 791 794 797 801 804 809 813 813 812 816 814 815 815 814 814 815 816 818 818 820 821 822 823 824
739 743 744 746 749 752 756 759 763 765 766 767 767 770 772 774 777 780 783 787 790 793 801 806 806 811 810 811 812 814 816 811 809 810 812 812 814 815 816 818 819 819 820
733 734 738 741 744 747 750 755 759 760 762 762 763 766 768 771 772 775 778 780 787 791 794 799 804 808 804 808 809 811 814 812 808 806 808 809 810 813 814 815 815 816 816
726 728 732 735 739 742 746 750 753 755 757 758 760 762 765 767 769 772 775 779 782 786 793 796 799 800 801 805 808 807 807 806 810 809 807 806 808 810 810 811 812 813 813
721 723 726 730 735 739 742 746 750 752 754 756 758 760 762 763 766 769 772 777 778 781 785 792 791 792 795 799 801 802 802 803 806 807 807 803 803 804 805 804 806 807 806
716 718 723 726 730 735 738 743 746 748 749 752 756 757 758 759 763 765 769 773 775 779 781 786 786 787 792 794 796 796 795 797 800 802 803 799 799 796 796 800 798 801 803
Wind_Speed
13 27 25 23 21 23 22 20 19 19 19 19 18 18 16 15 15 18 19 17 18 17 16 15 15 15 16 16 15 13 13 14 15 15 15 15 15 15 15 15 16 15 16
17 26 25 23 22 23 22 20 19 18 18 18 17 16 16 17 18 18 17 18 17 18 18 17 16 16 17 17 15 14 14 15 15 15 16 16 16 16 15 16 16 14 14
21 25 24 22 22 22 22 20 19 18 17 18 17 16 16 18 18 19 19 19 16 19 19 18 17 16 16 16 15 13 14 14 14 15 16 17 15 15 15 14 12 12 11
23 26 25 23 23 21 21 20 19 18 17 16 16 16 16 17 19 19 20 19 18 18 17 18 18 16 15 14 12 12 12 12 12 13 15 15 14 12 11 11 9 10 10
25 26 26 23 23 22 20 20 19 18 18 16 16 17 16 18 18 15 21 20 17 18 17 20 19 17 14 12 11 12 10 10 10 10 10 10 11 9 9 9 9 10 10
22 25 26 24 24 23 23 22 19 18 17 16 16 16 17 18 18 18 22 21 17 19 17 19 18 16 15 13 13 13 10 9 9 10 9 9 9 9 9 9 9 9 10
22 21 22 21 22 22 21 21 21 20 19 17 17 16 17 18 17 20 22 19 19 18 18 18 18 15 14 12 12 12 10 9 8 9 10 10 9 8 8 8 8 8 8
19 19 19 19 20 19 19 19 20 20 19 19 18 18 18 19 17 21 22 17 19 18 18 18 18 16 12 11 11 11 9 9 9 8 8 9 8 7 6 6 7 7 7
12 16 19 19 18 17 16 17 18 20 19 19 19 19 17 18 19 21 20 18 18 18 18 18 19 18 14 12 11 11 9 8 8 7 7 7 7 5 5 5 5 5 6
10 16 20 20 19 17 16 15 14 16 18 19 19 19 19 19 20 22 21 19 18 19 19 19 19 19 16 13 11 10 9 8 7 6 5 5 5 3 3 3 3 3 4
5 13 18 20 21 19 19 17 17 15 18 17 18 18 18 20 21 22 22 20 19 19 20 20 19 18 15 13 11 9 9 9 7 6 5 4 4 4 3 2 1 1 3
11 10 16 19 21 21 21 18 17 18 19 18 17 19 20 21 23 24 22 20 19 20 21 20 20 18 16 15 13 11 9 8 7 7 6 5 5 5 4 3 3 2 2
14 14 13 18 19 20 21 18 16 17 18 19 17 18 21 23 25 25 24 22 20 21 22 21 19 19 18 16 14 13 11 10 8 9 8 7 6 7 7 6 5 5 5
13 14 17 19 21 21 19 20 17 15 15 15 15 18 20 23 26 27 27 26 24 23 23 23 22 19 18 16 15 15 13 12 10 9 9 9 8 6 8 7 7 8 8
16 14 18 20 21 21 21 20 18 16 14 13 13 19 21 23 24 27 28 27 27 25 25 24 22 21 18 16 15 15 15 14 12 11 11 11 11 9 7 6 6 7 8
21 16 17 22 24 23 24 25 24 20 16 14 13 20 24 27 28 28 30 30 29 28 27 25 23 21 18 17 16 15 15 14 14 13 14 14 14 13 13 11 10 9 9
25 18 18 22 26 27 26 25 26 22 17 17 18 18 25 29 33 35 32 34 34 31 29 25 23 19 18 17 18 16 16 15 15 14 14 15 16 17 17 15 14 12 12
27 23 19 21 27 30 29 29 30 27 23 22 21 20 23 30 32 35 38 38 37 35 32 28 24 21 19 18 17 16 17 17 16 16 17 17 17 17 19 19 17 15 15
29 28 25 22 26 28 31 32 32 30 26 24 23 23 23 27 32 35 38 39 39 38 36 29 25 23 20 19 17 16 16 18 18 18 19 18 19 18 18 17 17 16 15
32 29 29 25 25 26 25 26 26 25 26 25 24 25 24 26 31 37 30 27 30 27 32 29 27 24 22 19 17 19 18 18 20 20 18 18 18 17 18 16 16 15 15
29 24 27 28 25 25 21 20 23 21 21 24 26 24 25 27 31 35 30 30 29 24 26 24 24 25 24 18 15 17 20 19 21 21 20 19 20 18 18 16 15 14 12
30 27 27 29 28 27 26 22 17 17 21 22 21 22 27 30 32 36 31 28 24 18 25 31 28 26 24 19 7 3 3 7 22 20 17 17 16 17 17 16 15 13 11
25 26 27 29 30 23 26 21 18 15 14 14 20 21 26 27 34 37 30 28 28 24 21 21 31 30 20 17 22 8 1 4 3 6 16 16 17 18 17 17 16 14 13
23 25 29 28 26 25 26 23 21 18 14 16 18 24 28 25 32 33 31 31 29 27 28 33 34 31 25 21 16 22 12 2 2 3 4 10 16 19 20 20 18 17 16
19 24 28 28 29 25 24 24 24 24 20 14 17 19 20 22 25 31 34 34 29 32 33 33 37 31 28 27 24 11 20 13 8 4 3 4 9 21 24 25 23 23 21
18 20 24 27 24 24 21 24 27 28 26 18 15 15 16 16 24 30 30 30 31 28 27 35 31 29 32 30 29 24 18 7 9 7 4 7 13 18 25 29 28 26 24
Wind_Direction
178 171 179 173 168 168 164 158 155 152 150 144 144 143 146 145 141 136 135 135 135 132 127 124 122 118 108 110 108 106 103 98 97 101 100 98 101 93 87 99 95 87 83
178 172 180 174 170 175 168 165 160 158 156 155 150 148 152 147 143 139 138 139 139 136 129 125 124 119 110 111 109 106 105 107 103 101 97 96 93 92 92 93 91 85 77
174 173 179 171 173 176 174 169 165 160 161 159 156 155 157 152 151 150 144 143 139 135 129 125 125 123 123 117 110 108 113 114 111 107 105 94 90 90 87 85 80 71 68
173 175 180 176 174 176 180 176 174 167 166 166 162 164 163 161 160 161 149 147 138 132 132 134 132 129 129 127 122 117 117 120 120 118 111 107 95 87 84 82 80 77 73
175 179 181 181 177 177 179 180 178 177 176 177 172 174 172 166 168 163 161 151 148 141 147 142 143 141 130 122 122 139 120 119 129 133 121 119 113 93 91 91 86 79 74
182 182 184 184 185 186 184 184 182 183 184 184 183 185 179 173 172 157 154 156 164 150 156 149 149 142 134 124 120 126 125 117 126 132 130 119 106 102 100 96 89 81 75
183 190 186 188 190 191 191 190 186 186 190 192 191 189 188 182 176 164 166 171 163 159 157 155 153 147 141 132 131 128 123 122 124 125 122 116 107 108 102 97 88 80 74
189 189 193 197 195 196 194 194 196 192 194 196 195 195 192 187 182 174 175 176 173 171 162 161 159 156 150 140 141 140 126 126 132 130 128 124 120 117 108 94 84 75 67
213 201 197 201 202 203 201 199 200 203 199 201 200 198 196 193 189 186 183 178 174 169 168 169 168 164 160 153 150 156 143 132 136 138 137 134 128 131 119 105 92 78 71
209 210 206 204 203 203 207 201 204 205 203 205 204 203 197 195 194 192 185 182 180 176 174 173 172 170 170 166 161 163 165 158 154 144 149 147 140 153 136 115 85 63 51
253 228 223 208 209 204 204 204 204 202 200 206 210 205 202 196 194 194 192 189 187 183 180 176 176 179 178 177 176 176 184 183 182 174 170 177 174 196 200 180 155 39 31
289 263 232 218 220 206 205 202 203 203 197 202 210 210 204 201 197 195 196 198 195 190 186 182 180 182 187 189 190 189 190 197 205 208 206 209 207 216 234 242 253 279 314
306 272 244 225 215 219 218 202 203 205 203 199 203 210 211 203 199 201 198 199 204 199 191 189 189 191 193 196 201 205 206 216 226 224 224 226 229 225 240 259 270 279 295
299 278 253 234 217 210 207 201 208 210 205 205 205 210 212 211 206 205 200 200 203 202 201 197 196 197 199 200 203 210 216 224 233 238 230 230 233 229 240 260 272 280 283
278 273 245 233 220 209 204 198 195 186 183 190 201 214 212 213 214 210 205 208 208 208 208 206 203 201 204 208 209 213 216 223 233 240 238 235 238 234 229 251 267 272 282
264 261 251 229 219 214 210 211 208 204 202 202 214 221 219 214 214 210 208 211 213 214 214 216 212 210 213 214 215 221 223 233 239 245 238 239 242 242 237 237 252 259 267
256 256 246 233 222 217 218 215 216 211 227 246 246 235 231 224 217 210 218 218 220 219 219 221 219 219 224 230 224 231 235 237 241 241 242 249 253 250 248 251 247 258 269
258 254 250 238 230 224 221 225 226 230 253 256 255 249 237 232 223 218 216 222 224 221 218 217 217 223 227 242 240 241 248 245 246 247 249 259 258 259 254 248 250 254 263
254 253 254 244 235 229 230 232 236 246 252 252 254 250 245 233 226 222 218 219 221 223 216 214 218 223 234 238 250 252 253 251 250 248 255 255 254 258 253 243 241 252 263
250 252 252 253 237 233 236 238 239 246 251 254 248 245 249 238 228 221 224 219 218 223 216 214 220 228 236 237 254 257 256 254 254 255 255 254 254 256 245 234 236 247 263
249 253 248 244 236 227 216 217 232 236 247 249 243 244 240 231 227 224 216 215 219 215 226 229 232 237 238 239 256 261 261 258 258 257 256 255 252 247 233 226 235 250 254
244 251 242 239 235 228 224 217 223 235 242 245 258 254 231 229 227 223 209 211 204 200 225 240 240 242 243 236 226 222 289 275 252 252 252 249 241 229 227 231 241 243 239
240 240 239 237 230 217 221 221 222 230 241 247 249 244 224 225 222 219 204 207 210 206 219 236 253 240 233 236 224 210 159 231 329 239 235 236 233 234 235 237 239 236 233
238 244 239 232 218 212 216 216 217 217 211 224 226 228 225 223 222 220 212 211 203 205 220 237 244 236 234 235 232 227 231 200 198 326 260 243 242 243 242 240 238 236 232
256 252 231 221 214 218 217 216 220 221 224 220 219 219 219 224 222 228 210 202 200 210 220 239 233 229 233 236 230 214 227 229 221 188 250 238 240 246 243 241 239 233 227
255 227 217 210 208 217 216 224 227 228 224 213 210 206 195 202 227 219 209 216 218 219 227 242 234 237 238 235 235 228 225 200 205 204 219 236 243 259 248 240 231 232 228